Location: Kuppenheim
(48.8299°N, 8.2568°E)
Time: 15:06:35
(UTC+00:00)

SeaSat 1 - Pass Details

Date: 20 June 2021
Orbit: 745 x 746 km, 108.0° (Epoch: 05 August)

Event Time Altitude Azimuth Distance (km) Brightness Sun altitude
Rises 02:28:03 0° 31° (NNE) 3,200 7.9 -7.4°
Reaches altitude 10° 02:30:21 10° 35° (NE) 2,272 6.7 -7.1°
Maximum altitude 02:35:15 62° 116° (ESE) 839 2.8 -6.6°
Drops below altitude 10° 02:40:07 10° 197° (SSW) 2,257 4.4 -6.1°
Enters shadow 02:41:17 - 200° (SSW) 2,729 4.8 -5.9°
